Probability
0 0 0 0 0 0 0 0 0 0 0 0 0 0 0 0 0 0 0 0 0 1 2 4 5 4 2 0 1 2 4 6 6 6 4 3 4 5 5 4 3 2 3
0 0 0 0 0 0 0 0 0 0 0 0 0 0 0 0 0 0 0 0 0 1 2 4 6 5 3 1 1 2 3 5 5 5 4 3 3 4 5 4 3 3 3
0 0 0 0 0 1 0 0 0 0 0 0 0 0 0 0 0 0 1 2 1 2 3 5 7 7 4 2 1 2 2 2 3 3 3 3 3 3 3 3 3 3 3
0 0 1 1 2 2 1 0 0 0 0 0 0 0 0 0 0 1 2 3 3 4 4 5 7 6 4 1 1 1 1 1 2 2 2 2 3 3 3 2 3 3 3
0 1 2 3 3 4 3 1 0 0 0 0 0 0 1 0 1 2 4 5 5 4 3 4 5 5 3 2 1 1 2 3 4 3 2 2 3 4 3 2 2 3 3
0 1 2 3 4 5 4 2 1 1 1 0 0 0 1 1 1 3 4 6 6 5 4 3 5 5 4 3 3 4 5 5 4 3 2 2 2 3 3 2 2 3 3
0 0 1 3 4 4 4 2 1 2 2 2 1 0 1 2 3 4 5 7 8 8 7 6 6 6 5 4 5 7 7 6 3 1 2 1 1 1 2 2 3 3 3
0 0 1 2 3 3 3 1 1 2 3 3 2 1 1 3 3 4 6 8 10 11 10 8 7 7 5 5 6 8 9 7 2 0 0 0 0 1 2 2 2 3 3
0 0 0 1 1 2 2 1 0 1 1 2 2 2 3 3 4 5 6 8 10 11 11 9 8 7 6 6 7 8 8 6 2 0 0 0 0 1 2 2 1 1 2
0 0 0 0 0 1 1 0 0 0 0 0 1 2 3 3 3 5 6 7 8 9 9 8 8 8 7 6 6 6 5 3 1 0 0 0 0 0 1 1 1 0 1
0 0 0 0 0 0 0 0 0 0 1 1 1 2 2 2 2 3 4 5 5 5 5 6 7 8 6 4 4 3 2 1 0 0 0 0 0 0 0 0 0 0 0
0 0 0 0 0 0 0 0 0 1 2 2 2 2 3 3 2 2 2 4 4 3 2 3 5 6 5 2 1 1 0 0 0 0 0 0 0 0 0 0 0 0 0
0 0 0 0 0 0 0 0 0 1 3 2 2 2 3 3 3 1 2 5 6 4 2 2 3 5 3 1 0 0 0 0 0 0 0 0 0 0 0 0 0 0 0
0 0 0 0 0 0 0 0 0 2 2 2 1 2 3 3 2 2 3 6 7 5 2 1 2 2 1 0 0 0 0 0 0 0 0 0 0 0 0 0 0 0 0
0 0 0 1 1 0 0 0 0 1 2 2 1 2 3 4 4 3 3 5 5 4 1 0 1 1 0 0 0 0 0 0 0 0 0 0 0 0 0 0 0 0 0
0 0 0 1 1 0 0 0 0 1 2 2 1 1 3 5 5 4 2 2 3 2 1 0 0 0 0 1 0 0 0 0 0 0 0 0 0 0 0 0 0 0 0
0 0 0 1 1 1 1 1 2 1 1 1 1 1 2 4 4 4 2 1 1 1 0 0 0 0 0 0 0 0 0 0 0 0 0 0 0 0 0 0 0 0 0
0 0 0 1 2 3 3 3 3 2 1 0 0 1 1 2 2 3 3 3 2 1 0 0 0 0 0 0 0 0 0 0 0 0 0 0 0 0 0 0 0 0 0
0 0 1 3 4 5 5 5 4 2 1 0 0 0 1 1 2 3 3 3 3 1 0 0 0 0 0 0 0 0 0 0 0 0 0 0 1 1 1 1 0 0 0
0 1 3 5 6 5 5 6 4 2 1 1 1 1 1 2 3 3 3 3 2 1 0 0 0 0 0 0 0 0 0 0 0 0 0 1 3 4 3 3 2 2 2
1 2 3 4 5 4 4 5 5 3 2 2 2 1 2 3 4 4 3 2 1 0 0 1 2 1 0 0 0 0 0 0 0 0 0 1 3 4 5 5 5 5 5
2 2 2 3 3 3 3 5 7 6 4 3 3 2 2 3 3 3 3 2 1 0 1 5 5 3 1 1 2 2 1 1 1 1 1 1 2 3 5 6 7 8 7
1 2 3 2 3 3 3 5 8 8 5 4 3 2 3 3 4 4 4 4 4 3 4 8 9 7 5 5 6 5 4 3 3 3 3 3 4 4 5 6 7 9 9
1 2 3 4 5 6 7 8 9 9 7 5 4 3 3 4 5 6 6 8 8 8 9 12 13 11 10 9 9 8 7 5 5 5 5 5 6 7 7 7 7 9 11
0 1 3 5 7 10 12 12 11 10 8 8 8 7 7 7 8 9 9 10 11 12 14 15 15 15 13 11 10 9 8 7 6 6 6 6 7 8 9 9 9 10 12
0 0 1 4 9 13 14 14 13 10 10 11 11 11 11 10 10 12 11 11 12 13 15 16 16 16 15 13 11 9 8 7 6 6 6 6 6 7 9 11 11 12 12
Wind_Speed
4 5 7 6 6 6 6 7 7 7 7 7 8 8 8 8 8 8 9 9 10 10 11 11 12 12 13 13 13 12 13 13 13 13 12 11 11 10 10 10 10 9 12
4 5 7 6 6 6 6 6 6 7 7 7 7 7 7 8 8 8 9 9 10 10 10 10 11 12 12 13 13 12 12 12 13 13 13 11 10 10 9 8 6 7 11
4 5 6 6 5 6 6 6 6 6 6 6 6 6 7 7 8 8 9 9 9 10 10 10 11 11 11 12 12 12 12 12 12 12 12 9 9 10 9 8 8 10 10
4 5 7 7 6 6 6 7 7 7 6 6 6 6 6 7 7 8 9 9 9 9 9 10 10 11 11 11 11 11 12 12 11 11 8 7 8 11 9 9 9 9 9
5 5 8 6 6 6 6 6 7 6 6 6 6 6 6 6 7 8 8 9 9 9 9 9 9 10 11 11 11 11 11 11 11 9 6 5 6 10 10 9 9 9 9
6 5 8 6 6 6 6 6 7 7 6 6 6 6 6 7 7 8 8 8 8 9 9 9 9 9 11 11 11 11 10 10 10 6 6 5 6 10 9 9 9 8 8
6 5 7 6 5 6 6 6 6 6 6 6 6 7 7 7 8 8 8 8 8 8 8 8 7 9 11 11 11 11 10 9 5 5 5 5 7 10 9 8 8 8 8
5 5 6 7 5 5 5 6 6 5 5 6 6 7 7 7 7 8 8 8 8 8 7 6 6 8 10 11 11 11 10 9 6 6 5 5 8 9 8 8 7 7 7
5 5 4 4 5 5 6 6 5 5 5 6 6 6 6 7 7 8 8 8 8 8 7 6 6 8 10 11 11 10 10 7 4 4 6 5 8 8 8 7 7 7 7
4 4 4 4 3 3 5 7 5 6 5 5 6 6 6 7 8 9 8 9 9 9 7 7 8 9 10 11 10 10 9 7 4 5 4 6 8 7 7 7 6 6 7
4 3 3 4 3 4 4 5 5 5 4 3 5 5 4 4 6 7 10 9 9 8 8 7 8 10 10 11 10 10 7 3 4 3 4 8 8 7 7 7 6 6 5
3 3 3 3 3 4 3 3 2 3 4 3 4 4 3 4 4 6 9 9 9 8 9 9 9 9 6 7 9 8 4 4 4 3 5 8 7 6 6 6 6 5 5
3 2 3 3 3 3 3 3 2 2 3 3 4 3 3 3 3 3 4 6 6 7 5 7 6 5 5 5 4 4 5 4 3 3 6 8 6 5 5 5 5 5 5
3 3 3 3 3 3 3 3 3 3 3 3 4 3 3 3 3 3 3 4 4 4 4 4 4 6 6 6 6 5 5 3 3 3 6 8 5 5 5 5 4 4 5
3 2 3 3 3 3 3 2 3 3 3 4 3 4 3 3 3 4 3 3 4 4 5 4 5 6 6 6 5 5 5 5 4 3 4 8 5 4 4 4 3 3 4
2 3 3 3 3 3 2 2 2 3 3 3 4 4 4 3 4 4 4 3 4 4 4 4 6 5 5 5 6 5 4 4 4 3 3 6 7 5 4 4 4 3 3
2 2 3 3 3 3 2 2 3 3 3 3 4 4 4 4 4 3 4 4 4 4 5 4 5 5 5 5 5 5 4 3 3 3 2 2 4 6 4 3 3 3 3
3 3 2 2 3 3 2 2 2 3 4 3 4 4 4 4 4 3 3 4 4 4 4 4 4 4 4 4 4 3 3 3 3 2 2 2 1 2 5 5 3 3 3
3 3 3 2 3 3 3 3 3 3 3 3 3 3 4 4 3 3 3 4 3 3 3 4 4 4 4 4 3 3 2 2 2 2 2 3 3 2 2 6 5 4 3
4 3 3 3 3 2 3 3 3 3 3 3 3 3 3 3 3 3 3 4 3 3 3 4 4 3 3 3 3 3 2 2 1 1 2 2 2 2 2 2 4 5 5
5 4 4 3 3 2 2 2 3 3 3 3 3 4 3 3 3 2 3 3 3 3 3 4 4 4 3 3 3 3 2 2 1 1 1 1 2 2 2 1 1 1 3
6 5 5 5 4 3 2 2 1 2 2 3 3 3 3 3 2 3 3 3 3 3 4 3 3 2 2 2 1 1 2 3 3 1 2 2 2 2 2 2 2 1 1
7 6 5 4 4 3 3 3 3 3 2 2 2 3 2 2 2 2 2 2 2 3 3 3 3 3 1 2 1 2 1 0 2 2 1 1 1 1 2 2 2 2 3
8 7 6 6 5 4 4 3 3 2 2 2 1 2 2 3 2 3 3 3 3 2 3 4 3 3 3 2 2 1 2 2 1 1 3 2 2 2 3 2 2 2 2
8 7 7 6 6 5 4 4 4 3 2 2 2 3 2 2 3 3 3 3 3 3 2 2 2 3 3 3 2 2 2 2 3 2 1 1 2 2 2 2 1 1 1
8 8 7 7 6 6 5 4 4 3 3 2 2 3 3 3 3 3 3 3 4 3 3 3 3 4 3 3 3 3 3 2 2 2 2 2 2 1 1 1 1 1 1
Wind_Direction
52 56 74 65 66 62 65 72 78 86 95 98 103 110 116 122 126 130 132 131 135 137 140 143 145 144 143 142 140 141 141 143 140 143 144 146 148 145 146 150 157 142 130
58 70 81 67 65 68 69 77 79 83 93 99 102 109 117 119 123 127 128 131 136 138 142 146 146 146 146 144 141 139 138 142 142 141 145 146 144 143 146 151 152 124 135
70 83 93 73 64 66 69 76 80 79 85 95 99 102 112 118 119 124 125 128 135 139 140 145 146 147 147 144 142 140 139 143 145 150 159 157 143 144 146 148 140 136 142
77 83 78 76 68 65 67 72 75 74 79 92 96 95 106 120 122 125 129 129 132 137 138 141 145 150 150 147 146 145 145 147 152 163 165 152 145 140 142 144 147 150 149
87 81 85 77 68 63 65 70 72 72 75 87 95 95 99 113 125 128 129 131 135 138 140 142 146 152 155 152 152 151 151 153 161 172 145 143 137 139 144 141 145 151 147
96 89 89 78 68 60 63 69 70 71 72 77 91 97 95 102 118 123 122 126 132 139 141 142 147 153 156 156 156 155 155 159 173 150 138 139 134 141 148 148 148 152 153
87 85 92 83 69 62 65 69 66 64 65 71 83 92 95 96 103 111 118 121 126 133 135 137 144 150 153 152 155 157 157 168 170 140 138 131 126 141 150 153 155 157 160
81 83 90 102 84 73 75 72 66 61 58 65 78 89 92 94 105 116 120 124 124 126 128 129 132 143 150 152 156 158 160 178 159 145 137 128 126 145 153 155 157 162 165
80 81 82 93 108 108 94 78 67 61 62 62 70 90 100 100 106 115 120 123 122 122 123 123 126 132 143 149 153 154 158 176 166 145 142 129 132 149 155 154 160 167 170
86 77 76 72 73 88 100 98 85 77 73 72 76 96 111 117 118 122 123 119 120 121 122 126 131 133 131 134 138 145 151 169 148 141 133 126 141 156 157 156 164 167 169
84 73 74 87 86 75 75 94 118 119 103 105 100 100 130 115 113 122 101 112 121 121 121 121 125 126 131 129 127 133 146 135 119 116 114 120 145 157 159 161 168 172 172
82 86 77 69 69 75 70 85 82 92 97 90 81 93 97 93 93 101 110 113 116 117 119 114 117 131 144 128 134 150 128 122 117 115 111 124 141 155 159 162 166 173 175
102 95 97 86 55 48 65 67 63 62 78 93 91 98 97 103 110 109 118 128 126 133 125 123 130 112 104 99 109 113 111 115 110 113 113 125 137 154 162 168 172 172 173
95 85 79 86 88 55 41 60 74 69 72 72 83 72 89 89 92 96 98 103 115 110 113 112 109 103 104 110 111 107 114 109 99 108 113 121 127 140 158 168 169 174 176
107 95 87 76 76 71 63 31 65 67 69 79 76 77 75 86 91 95 95 96 104 112 126 123 114 115 115 113 107 109 105 95 91 87 106 114 114 119 133 144 162 175 171
127 107 97 94 90 78 76 70 68 77 85 75 76 74 74 84 88 94 106 102 101 102 103 112 119 119 113 109 110 106 100 98 89 86 95 119 121 123 128 149 158 157 156
134 109 112 115 102 92 73 70 78 83 86 79 82 80 79 90 95 102 108 111 101 106 118 121 119 117 120 117 110 108 112 108 101 106 103 105 127 136 147 151 151 159 161
149 139 138 126 116 110 91 67 72 74 82 83 86 90 88 88 96 103 105 104 106 113 118 118 123 119 118 120 118 116 116 124 126 132 136 128 121 136 146 146 147 152 151
159 153 151 134 124 120 120 117 103 94 85 84 82 83 93 99 103 107 98 99 120 116 119 122 116 121 123 123 127 128 130 127 136 149 142 147 150 162 149 140 152 153 156
159 156 151 146 137 143 139 128 111 102 104 96 92 86 90 106 111 115 117 115 126 117 117 113 116 118 124 135 133 114 119 128 144 142 173 165 159 174 177 164 161 160 162
167 165 163 160 147 154 128 132 121 120 116 109 110 106 111 112 116 115 111 119 127 121 125 133 134 139 142 142 145 139 140 149 150 177 190 191 174 180 171 187 184 173 160
177 177 174 174 168 172 138 124 118 111 120 112 108 113 120 126 133 138 133 147 134 135 144 146 156 162 160 172 199 184 173 164 163 176 171 186 202 194 187 190 189 188 251
184 185 181 178 175 178 167 160 146 146 151 136 138 138 144 150 147 131 151 158 159 178 159 171 181 198 193 180 236 280 268 109 137 147 153 188 203 218 221 206 202 206 214
187 182 181 180 183 183 189 182 174 165 152 134 163 139 155 163 163 163 168 177 196 190 171 199 189 217 223 221 188 244 296 328 275 166 167 168 197 223 244 246 221 205 210
187 183 178 180 185 187 195 190 200 195 175 166 170 157 186 170 184 189 185 193 204 211 205 229 210 237 237 249 246 221 208 216 245 251 209 190 203 208 228 241 230 232 206
186 186 182 180 185 190 198 200 207 209 206 194 198 186 196 185 187 186 195 201 212 216 209 220 229 228 247 260 264 249 234 243 234 239 245 233 237 215 221 261 249 208 211